TimeEST,TemperatureF,Dew PointF,Humidity,Sea Level PressureIn,VisibilityMPH,Wind Direction,Wind SpeedMPH,Gust SpeedMPH,PrecipitationIn,Events,Conditions,WindDirDegrees,DateUTC
12:54 AM,28.0,21.9,78,30.33,10.0,North,12.7,-,N/A,,Overcast,10,2012-11-30 05:54:00
1:54 AM,27.0,19.9,75,30.35,10.0,NNE,9.2,-,N/A,,Overcast,20,2012-11-30 06:54:00
2:54 AM,26.1,17.1,69,30.38,10.0,North,10.4,-,N/A,,Overcast,360,2012-11-30 07:54:00
3:54 AM,26.1,18.0,71,30.38,10.0,NNE,6.9,-,N/A,,Overcast,20,2012-11-30 08:54:00
4:06 AM,26.6,17.6,69,30.37,10.0,NNE,9.2,-,N/A,,Overcast,30,2012-11-30 09:06:00
4:54 AM,26.1,17.1,69,30.39,10.0,NE,6.9,-,N/A,,Overcast,40,2012-11-30 09:54:00
5:54 AM,25.0,14.0,63,30.41,10.0,NNE,9.2,-,N/A,,Overcast,20,2012-11-30 10:54:00
7:54 AM,24.1,15.1,69,30.45,10.0,NNE,8.1,-,N/A,,Overcast,30,2012-11-30 12:54:00
8:54 AM,24.1,14.0,65,30.45,10.0,NE,6.9,-,N/A,,Overcast,40,2012-11-30 13:54:00
9:54 AM,24.1,12.9,62,30.47,10.0,NE,4.6,-,N/A,,Overcast,40,2012-11-30 14:54:00
10:54 AM,24.1,12.9,62,30.47,10.0,NNE,4.6,-,N/A,,Overcast,30,2012-11-30 15:54:00
11:54 AM,25.0,12.9,60,30.44,10.0,NNE,4.6,-,N/A,,Overcast,30,2012-11-30 16:54:00
12:54 PM,25.0,14.0,63,30.44,10.0,NNE,3.5,-,N/A,,Overcast,30,2012-11-30 17:54:00
1:54 PM,26.1,12.9,58,30.43,10.0,NE,4.6,-,N/A,,Overcast,50,2012-11-30 18:54:00
2:54 PM,27.0,15.1,61,30.43,10.0,NE,3.5,-,N/A,,Overcast,40,2012-11-30 19:54:00
3:44 PM,26.6,15.8,64,30.40,5.0,East,3.5,-,0.00,Snow,Light Snow,90,2012-11-30 20:44:00
3:54 PM,27.0,16.0,63,30.43,8.0,Calm,Calm,-,0.00,,Overcast,0,2012-11-30 20:54:00
4:21 PM,26.6,17.6,69,30.41,10.0,ENE,3.5,-,N/A,,Overcast,60,2012-11-30 21:21:00
4:54 PM,27.0,19.0,72,30.43,5.0,ENE,3.5,-,0.00,Snow,Light Snow,70,2012-11-30 21:54:00
5:54 PM,27.0,21.9,81,30.43,5.0,ENE,4.6,-,0.00,Snow,Light Snow,60,2012-11-30 22:54:00
6:18 PM,26.6,21.2,80,30.41,2.0,East,5.8,-,0.00,Snow,Light Snow,90,2012-11-30 23:18:00
6:54 PM,27.0,21.9,81,30.44,3.0,East,5.8,-,0.00,Snow,Light Snow,90,2012-11-30 23:54:00
7:05 PM,26.6,21.2,80,30.42,8.0,East,6.9,-,0.00,,Overcast,80,2012-12-01 00:05:00
7:54 PM,27.0,21.9,81,30.44,6.0,East,6.9,-,0.01,Snow,Light Snow,90,2012-12-01 00:54:00
8:09 PM,26.6,21.2,80,30.42,2.0,East,5.8,-,0.00,Snow,Light Snow,100,2012-12-01 01:09:00
8:40 PM,26.6,21.2,80,30.42,4.0,East,6.9,-,0.00,Snow,Light Snow,100,2012-12-01 01:40:00
8:50 PM,26.6,21.2,80,30.42,3.0,East,6.9,-,0.00,Snow,Light Snow,100,2012-12-01 01:50:00
8:54 PM,26.1,21.9,84,30.44,4.0,ESE,5.8,-,0.00,Snow,Light Snow,110,2012-12-01 01:54:00
9:54 PM,25.0,19.9,81,30.43,8.0,East,8.1,-,0.00,Snow,Light Snow,100,2012-12-01 02:54:00
10:54 PM,25.0,19.9,81,30.44,5.0,East,5.8,-,0.00,Snow,Light Snow,80,2012-12-01 03:54:00
11:54 PM,25.0,19.9,81,30.43,10.0,East,6.9,-,0.00,,Overcast,90,2012-12-01 04:54:00